Retour au catalogue

CZ-6A DEB

ActifPO
NORAD 60884·DEBRIS·🇨🇳 China

Lancé Aug 6, 2024 depuis Taiyuan Satellite Launch Center

Loading…

Prochains Passages (prochaines 24 heures)

TLE

FraisSource: Space-Track

Époque: Sep 14, 2026, 11:23 UTC

1 60884U 24140KP  26257.47441911  .00000616  00000-0  36880-3 0  9991
2 60884  89.0585 272.9887 0135825 316.5645  42.4895 14.01523234105867

Suivez CZ-6A DEB en temps réel avec AllMySat

Download on the App Store